www.pogodaiklimat.ru

Погода и климат >> Архив погоды >> Украина >> Киев


АРХИВ ПОГОДЫ в Киеве

Время (UTC), дата Ветер
(напр.,м/с)
 
Видим.   Явления Облачность Т
(С)
Тd
(С)
f
(%)
Тe
(С)
Тes
(С)
Комфортность P
(гПа)
Po
(гПа)
Тmin
(С)
Tmax
(С)
R
(мм)
R24
(мм)
S
(см)
21 18.08 Ю 1 20 км ясно +17.5 +10.4 63 +19 +19 по сезону 1016.3 996.6
00 19.08 штиль 0 20 км ясно +15.5 +10.8 74 +15 +15 по сезону 1017.2 997.4
03 19.08 штиль 0 10 км ясно +14.3 +10.3 77 +14 +14 прохладно 1018.0 998.1
06 19.08 штиль 0 20 км ясно +21.5 +12.9 58 +24 +31 комфорт 1018.7 999.3 +14.0
09 19.08 ЮВ 1 20 км ясно +27.4 +12.7 40 +29 +44 жарко 1018.3 999.2
12 19.08 СВ 2 20 км 3/3 1000 м
[Cu hum]
+28.2 +11.4 35 +29 +36 жарко 1017.8 998.8
15 19.08 Ю 2 20 км 1/1 1000 м
[Cu hum]
+28.7 +12.3 36 +30 +32 жарко 1018.2 999.2
18 19.08 Ю 1 20 км ясно +22.1 +11.6 51 +24 +24 комфорт 1019.3 999.9 +29.2
21 19.08 Ю 2 20 км ясно +19.3 +12.3 64 +21 +21 комфорт 1020.1 1000.5
00 20.08 Ю 3 20 км ясно +19.7 +9.8 53 +21 +21 комфорт 1020.3 1000.7
03 20.08 Ю 1 20 км ясно +16.0 +11.2 73 +17 +17 по сезону 1021.4 1001.5
06 20.08 Ю 1 20 км ясно +22.0 +13.5 59 +25 +31 комфорт 1021.9 1002.4 +15.8
09 20.08 Ю 2 20 км ясно +28.7 +14.7 42 +31 +44 жарко 1021.7 1002.7
12 20.08 ЮВ 3 20 км ясно +30.9 +12.0 31 +31 +40 жарко 1020.9 1002.0
15 20.08 Ю 1 20 км ясно +30.7 +12.2 32 +31 +34 жарко 1020.9 1002.0
18 20.08 Ю 1 20 км ясно +24.7 +13.4 49 +27 +27 жарко 1022.0 1002.7 +31.8
21 20.08 Ю 1 20 км ясно +22.4 +12.2 52 +25 +25 комфорт 1022.8 1003.3
00 21.08 штиль 0 20 км ясно +20.5 +12.5 60 +22 +22 комфорт 1022.6 1003.0
03 21.08 штиль 0 20 км ясно +18.9 +12.9 68 +20 +20 тепло 1022.8 1003.1
06 21.08 ЮВ 1 20 км ясно +24.1 +14.9 56 +27 +32 жарко 1023.1 1003.8 +18.5
09 21.08 Ю 2 20 км ясно +29.5 +12.3 35 +31 +43 жарко 1022.0 1003.0
12 21.08 ЮВ 1 20 км 1/0
[Ci sp]
+31.6 +11.7 30 +32 +44 жарко 1020.3 1001.5
15 21.08 В 2 20 км 3/0
[Cs]
+31.2 +12.0 31 +32 +34 жарко 1019.5 1000.6
18 21.08 штиль 0 20 км ясно +25.5 +14.5 51 +28 +28 жарко 1020.0 1000.8 +32.3
21 21.08 штиль 0 20 км ясно +22.8 +14.3 59 +26 +26 жарко 1020.4 1001.0
00 22.08 СЗ 1 20 км ясно +21.2 +14.6 66 +24 +24 комфорт 1020.3 1000.8
03 22.08 С 4 20 км ясно +19.5 +15.6 78 +21 +21 комфорт 1021.2 1001.6
06 22.08 С 3 20 км 8/8 420 м
[Sc]
+18.7 +15.1 80 +20 +21 тепло 1022.7 1003.0 +18.5
09 22.08 СВ 4 20 км 8/0
[Ac As Cs]
+20.8 +14.9 69 +24 +29 комфорт 1023.6 1004.0
12 22.08 С 5 20 км 8/0
[Ac As]
+21.0 +15.1 69 +24 +27 комфорт 1023.9 1004.3
15 22.08 СВ 6 20 км 3/0
[Cc]
+20.6 +14.2 67 +23 +24 комфорт 1023.9 1004.3
18 22.08 СВ 4 20 км ясно +20.3 +13.7 66 +23 +23 комфорт 1024.7 1005.1 +22.4
21 22.08 СВ 3 20 км ясно +19.1 +13.7 71 +21 +21 комфорт 1025.4 1005.7
00 23.08 СВ 3 20 км ясно +17.2 +13.5 79 +17 +17 по сезону 1025.8 1005.9
03 23.08 СВ 3 20 км ясно +15.3 +12.2 82 +15 +15 по сезону 1025.7 1005.7
06 23.08 СВ 3 20 км 4/0
[Cc]
+16.5 +11.9 74 +16 +20 по сезону 1026.2 1006.3 +15.0
09 23.08 С 4 20 км 5/0
[Ac trans Ci fib]
+20.3 +13.5 65 +23 +29 комфорт 1026.1 1006.4
12 23.08 СВ 5 20 км 5/0
[Cc]
+23.1 +13.5 55 +26 +31 жарко 1025.4 1005.9
15 23.08 СВ 4 20 км 6/0
[Ac trans Ci fib]
+22.7 +12.1 51 +25 +26 комфорт 1025.2 1005.7
18 23.08 С 2 20 км 3/0
[Ac trans]
+20.2 +12.6 62 +23 +23 комфорт 1026.0 1006.3 +23.7
21 23.08 СВ 3 20 км ясно +19.5 +11.9 61 +21 +21 комфорт 1025.5 1005.8
00 24.08 СВ 2 20 км ясно +17.8 +11.6 67 +18 +18 тепло 1025.5 1005.7
03 24.08 С 2 20 км ясно +16.5 +12.1 75 +17 +17 по сезону 1026.0 1006.1
06 24.08 С 2 20 км ясно +18.7 +11.6 63 +20 +24 тепло 1026.1 1006.3 +16.3
09 24.08 СВ 3 20 км ясно +23.4 +12.4 50 +26 +36 жарко 1025.5 1006.0
12 24.08 С 3 20 км ясно +26.2 +12.6 43 +28 +36 жарко 1024.2 1005.0
15 24.08 СВ 3 20 км ясно +25.9 +11.3 40 +27 +29 жарко 1023.9 1004.6
18 24.08 С 2 20 км ясно +22.7 +7.0 36 +23 +23 комфорт 1024.6 1005.1 +26.7
21 24.08 СВ 2 20 км ясно +20.5 +8.5 46 +22 +22 комфорт 1024.7 1005.0
00 25.08 СВ 2 20 км ясно +18.9 +8.0 49 +20 +20 тепло 1025.4 1005.6
03 25.08 СВ 3 20 км ясно +17.5 +9.0 57 +18 +18 тепло 1025.6 1005.7
06 25.08 СВ 2 20 км 4/0
[Ac lent Ci sp]
+19.2 +10.5 57 +21 +24 комфорт 1026.1 1006.3 +16.9
09 25.08 В 3 20 км 3/0
[Cs]
+24.8 +9.9 39 +26 +35 жарко 1025.7 1006.3
12 25.08 В 3 20 км 3/0
[Cs]
+26.8 +9.1 33 +27 +35 жарко 1024.8 1005.6
15 25.08 СВ 2 20 км 1/0
[Ci fib]
+26.4 +8.3 32 +26 +28 жарко 1024.2 1004.9
18 25.08 штиль 0 20 км ясно +21.6 +10.2 48 +23 +23 комфорт 1025.5 1005.9 +27.6

 

Местоположение метеостанции Киев (город Киев, Украина): широта 50.40 долгота 30.57 высота над уровнем моря 167 м.

В архиве по умолчанию представлена погода в Киеве за последнюю неделю. Архивные данные за месяц целиком и за предыдущие месяцы, начиная с января 2011 года, Вы можете получить, выбрав интересующий диапазон дат из раскрывающегося списка и нажав кнопку "Ввод!".


*Определитесь, кто Вы:
робот инопланетянин человек

Внимание! Время в таблицах - всемирное. Для получения местного времени необходимо прибавить поправку, которая равна 2 ч.

Смотрите также архив погоды в соседних городах и на ближайших метеорологических станциях:

Погода в Вышгороде (Киевская область, Украина) (21 км)
Погода в Борисполе (Киевская область, Украина) (29 км)
Погода в Барышевке (Киевская область, Украина) (54 км)
Погода в Фастове (Киевская область, Украина) (58 км)
Погода в Остере (Черниговская область, Украина) (65 км)
Погода в Тетереве (Киевская область, Украина) (78 км)
Погода в Белой Церкви (Киевская область, Украина) (79 км)
Погода в Мироновке (Киевская область, Украина) (87 км)
Погода в Яготине (Киевская область, Украина) (90 км)
Погода в Чернобыле (Киевская область, Украина) (101 км)

Пояснения к столбцам:

Ветер - указаны скорость ветра в м/с - средняя за 10 мин, порывы в срок и между сроками (в фигурных скобках) и направление, откуда дует ветер: С - северный, СВ - северо-восточный, В - восточный, ЮВ - юго-восточный, Ю - южный, ЮЗ - юго-западный, З - западный, СЗ - северо-западный.
Видимость - горизонтальная дальность видимости в метрах или километрах. При видимости от 1 до 10 км при отсутствии осадков обычно наблюдается дымка, при ухудшении видимости до 1 км и менее - туман. В сухую погоду видимость может ухудшаться дымом, пылью или мглою.
Явления - указаны атмосферные явления, наблюдавшиеся в срок или в последний час перед сроком; фигурными скобками обозначены явления, наблюдавшиеся между сроками (за 1-3 часа до срока); квадратными скобками обозначены град или гололедные отложения с указанием их диаметра в мм.
Облачность - указаны через наклонную черту общая и нижняя облачность в баллах и высота нижней границы облаков в метрах; квадратными скобками обозначены формы облаков: Ci - перистые, Cs - перисто-слоистые, Cc - перисто-кучевые, Ac - высококучевые, As - высокослоистые, Sc - слоисто-кучевые, Ns - слоисто-дождевые, Cu - кучевые, Cb - кучево-дождевые. Подробнее классификацию облаков см. в Атласе облаков (PDF).
T - Температура воздуха - температура, измеренная на высоте 2 м над землей.
Td - Температура точки росы - температура, при понижении до которой содержащийся в воздухе водяной пар достигнет насыщения.
f - Относительная влажность воздуха - влажноcть воздуха, измеренная на высоте 2 м над землей.
Te - Эффективная температура - температура, которую ощущает одетый по сезону человек в тени. Характеристика душности погоды. При расчете учитывается влияние влажности воздуха и скорости ветра на теплоощущения человека.
Tes - Эффективная температура на солнце - температура, которую ощущает человек, с поправкой на солнечный нагрев. Характеристика знойности погоды. Зависит от высоты солнца над горизонтом, облачности и скорости ветра. Ночью, в пасмурную погоду, а также при ветре 12 м/с и более поправка равна нулю.
P - Атмосферное давление - приведенное к уровню моря атмосферное давление.
Po - Атмосферное давление - измеренное на уровне метеостанции атмосферное давление.
Tmin - Минимальная температура - минимум температуры воздуха на высоте 2 м над землей.
Tmax - Максимальная температура - максимум температуры воздуха на высоте 2 м над землей.
R - Количество осадков - Количество выпавших осадков за период времени, мм. При наведении курсора мыши на число - период времени, за который выпало указанное количество осадков.
R24 - Количество осадков - Количество выпавших осадков за 24 часа, мм.
S - Снежный покров - Высота снежного покрова, см. При наведении курсора мыши на число - состояние снежного покрова и степень покрытия местности в баллах.